Home   Weather   Alta   Past weeks
Flag for Norway

Past Weather in Alta, Norway — Yesterday and Last 2 Weeks

Now
24 °F

Cold.


Feels Like: 16 °F
Forecast: 30 / 23 °F
Wind: 6 mph from Southeast

Location: Alta Lufthavn

Current Time: Apr 2, 2020 at 5:33:41 pm

Latest Report: Apr 2, 2020 at 4:00 pm


Visibility: N/A

Pressure: 29.03 "Hg

Humidity: 64%

Dew Point: 13 °F

Location of AltaLocation

Past Weather in Alta — Graph

°F

Alta Temperature Yesterday

Maximum temperature yesterday: 33 °F (at 10:00 am)
Minimum temperature yesterday: 15 °F (at 11:00 pm)
Average temperature yesterday: 25 °F

High & Low Weather Summary for the Past Weeks

 TemperatureHumidityPressure
High44 °F (Mar 25, 10:00 am)96% (Mar 28, 6:00 am)30.28 "Hg (Mar 28, 6:00 am)
Low13 °F (Apr 2, 4:00 am)47% (Mar 25, 10:00 am)29.03 "Hg (Apr 2, 4:00 pm)
Average30 °F75%29.71 "Hg
* Reported Mar 18 4:00 pm — Apr 2 4:00 pm, Alta. Weather by CustomWeather, © 2020

Note: Actual official high and low records may vary slightly from our data, if they occured in-between our weather recording intervals... More about our weather records

Alta Weather History for the Previous 24 Hours

Scroll right to see more
 ConditionsComfort  
Time TempWeatherWind HumidityBarometerVisibility
4:00 pm
Thu, Apr 2
24 °FCold.6 mph64%29.03 "HgN/A
3:00 pm26 °FChilly.5 mph58%29.06 "HgN/A
2:00 pm27 °FChilly.5 mph57%29.09 "HgN/A
1:00 pm27 °FChilly.3 mph60%29.09 "HgN/A
12:00 pm29 °FChilly.5 mph55%29.12 "HgN/A
11:00 am27 °FChilly.6 mph60%29.12 "HgN/A
10:00 am26 °FChilly.5 mph70%29.15 "HgN/A
9:00 am24 °FCold.5 mph73%29.18 "HgN/A
8:00 am22 °FCold.5 mph75%29.18 "HgN/A
7:00 am20 °FCold.2 mph76%29.21 "HgN/A
6:00 am15 °FCold.2 mph84%29.23 "HgN/A
5:00 am14 °FCold.2 mph84%29.23 "HgN/A
4:00 am13 °FCold.2 mph87%29.26 "HgN/A
3:00 am13 °FCold.2 mph86%29.29 "HgN/A
2:00 am15 °FCold.3 mph83%29.32 "HgN/A
1:00 am16 °FCold.3 mph85%29.35 "HgN/A
12:00 am15 °FCold.2 mph83%29.35 "HgN/A
11:00 pm
Wed, Apr 1
15 °FCold.2 mph86%29.38 "HgN/A
10:00 pm19 °FCold.3 mph81%29.38 "HgN/A
9:00 pm22 °FCold.1 mph78%29.38 "HgN/A
8:00 pm24 °FCold.2 mph71%29.41 "HgN/A
7:00 pm27 °FChilly.3 mph69%29.41 "HgN/A
5:00 pm31 °FChilly.5 mph67%29.41 "HgN/A
Weather by CustomWeather, © 2020

See weather overview

Advertising